Weather History for Middletown, OH

Change the Weather History Date:

Tuesday, December 4, 2012

  Actual Average (KDAY) Record (KDAY)
Temperature  
Mean Temperature 51 °F 35 °F  
Max Temperature 65 °F 42 °F 68 °F (1998)
Min Temperature 37 °F 28 °F 9 °F (1991)
Degree Days  
Heating Degree Days 14 30  
Month to date heating degree days 118  
Since 1 July heating degree days 1229  
Cooling Degree Days 0 0  
Month to date cooling degree days 0  
Year to date cooling degree days 891  
Growing Degree Days 1 (Base 50)    
Moisture  
Dew Point 52 °F    
Average Humidity 89    
Maximum Humidity 100    
Minimum Humidity 78    
Precipitation  
Precipitation 0.00 in 0.11 in 1.42 in (1993)
Month to date precipitation 0.41  
Year to date precipitation 38.34  
Snow  
Snow 0.00 in 0.10 in 4.00 in (1898)
Month to date snowfall 0.3  
Since 1 July snowfall 1.3  
Snow Depth -    
Sea Level Pressure  
Sea Level Pressure 30.10 in    
Wind  
Wind Speed 9 mph (SW)    
Max Wind Speed 17 mph    
Max Gust Speed 24 mph    
Visibility 9 miles    
Events Fog , Rain    
T = Trace of Precipitation, MM = Missing Value Source: NWS Daily Summary

Daily Weather History Graph

Daily Weather History Graph

Search for Another Location

Airport:

Trip Planner

Search our weather history database for the weather conditions in past years. The results will help you decide how hot, cold, wet, or windy it might be!

Date:

Astronomy

Dec. 04, 2012 Rise Set
Actual Time 7:42 AM EST 5:13 PM EST
Civil Twilight 7:12 AM EST 5:43 PM EST
Nautical Twilight 6:38 AM EST 6:17 PM EST
Astronomical Twilight 6:06 AM EST 6:49 PM EST
Moon 10:59 PM EST (12/4) 11:36 AM EST (12/4)
Length of Visible Light 10h 31m
Length of Day
9h 31m
Waning Gibbous, 69% of the Moon is Illuminated
Dec 4
Waning Gibbous
Dec 6
Last Quarter
Dec 13
New
Dec 20
First Quarter
Dec 28
Full

Hourly Weather History & Observations

Time (EST) Temp. Windchill Dew Point Humidity Pressure Visibility Wind Dir Wind Speed Gust Speed Precip Events Conditions
12:15 AM 60.1 °F - 53.4 °F 79% 30.10 in 10.0 mi South 8.1 mph - N/A   Scattered Clouds
12:35 AM 60.6 °F - 53.6 °F 78% 30.10 in 10.0 mi SSW 8.1 mph - N/A   Mostly Cloudy
1:15 AM 60.1 °F - 54.1 °F 81% 30.09 in 10.0 mi SSW 8.1 mph - N/A   Mostly Cloudy
1:35 AM 60.1 °F - 54.5 °F 82% 30.09 in 10.0 mi SSW 6.9 mph - N/A   Mostly Cloudy
1:55 AM 60.1 °F - 54.5 °F 82% 30.09 in 10.0 mi SSW 9.2 mph - N/A   Overcast
2:15 AM 60.1 °F - 54.5 °F 82% 30.09 in 10.0 mi SSW 8.1 mph - N/A   Overcast
2:35 AM 59.2 °F - 53.8 °F 82% 30.10 in 10.0 mi SSW 9.2 mph - N/A   Overcast
2:55 AM 59.5 °F - 54.0 °F 82% 30.09 in 10.0 mi SSW 10.4 mph - N/A   Overcast
3:15 AM 59.0 °F - 53.6 °F 82% 30.09 in 10.0 mi SSW 10.4 mph - N/A   Mostly Cloudy
3:55 AM 59.0 °F - 53.2 °F 81% 30.08 in 10.0 mi SSW 8.1 mph - N/A   Overcast
4:15 AM 59.0 °F - 53.1 °F 81% 30.08 in 10.0 mi SSW 9.2 mph - N/A   Overcast
4:35 AM 59.0 °F - 53.1 °F 81% 30.08 in 10.0 mi SSW 10.4 mph - N/A   Overcast
4:55 AM 59.0 °F - 52.7 °F 80% 30.07 in 10.0 mi SSW 11.5 mph - N/A   Overcast
5:15 AM 59.0 °F - 52.9 °F 80% 30.07 in 10.0 mi SSW 10.4 mph - N/A   Overcast
5:35 AM 59.0 °F - 52.5 °F 79% 30.07 in 10.0 mi SSW 9.2 mph - N/A   Overcast
5:55 AM 59.0 °F - 52.7 °F 80% 30.07 in 10.0 mi South 9.2 mph - N/A   Overcast
6:15 AM 59.0 °F - 52.9 °F 80% 30.07 in 10.0 mi SSW 9.2 mph - N/A   Overcast
6:35 AM 59.0 °F - 52.9 °F 80% 30.07 in 10.0 mi SSW 9.2 mph - N/A   Overcast
6:55 AM 59.0 °F - 52.9 °F 80% 30.08 in 10.0 mi SSW 9.2 mph - N/A   Overcast
7:15 AM 59.0 °F - 53.1 °F 81% 30.08 in 10.0 mi SSW 9.2 mph - N/A   Overcast
7:35 AM 59.0 °F - 53.1 °F 81% 30.08 in 10.0 mi SSW 10.4 mph - N/A   Overcast
7:55 AM 58.5 °F - 53.1 °F 82% 30.08 in 10.0 mi SSW 10.4 mph - N/A   Mostly Cloudy
8:15 AM 59.0 °F - 53.6 °F 82% 30.08 in 10.0 mi SSW 9.2 mph - N/A   Overcast
8:35 AM 59.0 °F - 53.6 °F 82% 30.08 in 10.0 mi SSW 10.4 mph - N/A   Mostly Cloudy
8:55 AM 60.1 °F - 54.5 °F 82% 30.08 in 10.0 mi SSW 9.2 mph - N/A   Mostly Cloudy
9:15 AM 60.1 °F - 54.7 °F 82% 30.08 in 10.0 mi SSW 10.4 mph - N/A   Scattered Clouds
9:35 AM 62.6 °F - 56.3 °F 80% 30.08 in 10.0 mi SSW 12.7 mph - N/A   Mostly Cloudy
9:55 AM 62.6 °F - 56.7 °F 81% 30.08 in 10.0 mi SSW 13.8 mph 19.6 mph N/A   Overcast
10:15 AM 62.6 °F - 56.8 °F 81% 30.08 in 10.0 mi SSW 15.0 mph 20.7 mph N/A   Overcast
10:35 AM 62.6 °F - 56.8 °F 81% 30.08 in 10.0 mi SSW 13.8 mph - N/A   Overcast
10:55 AM 62.6 °F - 57.2 °F 82% 30.07 in 10.0 mi SSW 15.0 mph - N/A   Overcast
11:15 AM 62.6 °F - 57.4 °F 83% 30.07 in 10.0 mi SW 13.8 mph 17.3 mph N/A   Overcast
11:35 AM 62.6 °F - 57.9 °F 85% 30.07 in 10.0 mi SSW 11.5 mph - N/A   Overcast
11:55 AM 64.9 °F - 60.1 °F 84% 30.06 in 10.0 mi SW 10.4 mph 16.1 mph N/A   Overcast
12:15 PM 65.3 °F - 60.1 °F 83% 30.04 in 10.0 mi SSW 11.5 mph - N/A   Overcast
12:35 PM 65.3 °F - 60.1 °F 83% 30.04 in 10.0 mi SSW 10.4 mph - N/A   Overcast
12:55 PM 65.3 °F - 60.3 °F 84% 30.03 in 10.0 mi SSW 13.8 mph 19.6 mph N/A   Overcast
1:15 PM 62.6 °F - 59.2 °F 89% 30.02 in 10.0 mi SW 16.1 mph - N/A Rain Light Rain
1:35 PM 62.6 °F - 59.4 °F 89% 30.02 in 10.0 mi SW 11.5 mph - N/A   Overcast
1:55 PM 60.8 °F - 59.5 °F 96% 30.02 in 3.0 mi SW 11.5 mph - N/A Rain Heavy Rain
2:15 PM 60.1 °F - 60.1 °F 100% 30.02 in 10.0 mi SW 11.5 mph - N/A   Overcast
2:35 PM 60.1 °F - 60.1 °F 100% 30.02 in 5.0 mi SW 8.1 mph - N/A Rain Light Rain
2:55 PM 60.1 °F - 60.1 °F 100% 30.02 in 7.0 mi SW 9.2 mph - N/A Rain Rain
3:15 PM 60.1 °F - 60.1 °F 100% 30.02 in 3.0 mi SW 8.1 mph - N/A Rain Rain
3:35 PM 60.1 °F - 60.1 °F 100% 30.02 in 3.0 mi WSW 8.1 mph - N/A Rain Rain
3:55 PM 52.7 °F - 52.7 °F 100% 30.06 in 7.0 mi NNW 17.3 mph 24.2 mph N/A Rain Light Rain
4:15 PM 52.7 °F - 52.7 °F 100% 30.07 in 10.0 mi North 12.7 mph 17.3 mph N/A Rain Light Rain
4:35 PM 52.3 °F - 52.3 °F 100% 30.09 in 10.0 mi North 11.5 mph 18.4 mph N/A Rain Light Rain
4:55 PM 47.7 °F - 45.7 °F 93% 30.11 in 10.0 mi NNE 9.2 mph 21.9 mph N/A   Light Drizzle
5:15 PM 47.7 °F - 46.4 °F 95% 30.13 in 10.0 mi NNE 6.9 mph - N/A   Overcast
5:35 PM 47.7 °F - 46.6 °F 96% 30.14 in 7.0 mi North 5.8 mph - N/A   Unknown
5:55 PM 47.7 °F - 46.4 °F 95% 30.14 in 7.0 mi NNE 6.9 mph - N/A   Unknown
6:15 PM 47.7 °F - 46.4 °F 95% 30.15 in 10.0 mi North 6.9 mph - N/A   Unknown
6:35 PM 47.7 °F - 46.4 °F 95% 30.16 in 10.0 mi NNW 3.5 mph - N/A   Overcast
6:55 PM 47.7 °F - 46.6 °F 96% 30.17 in 10.0 mi Calm Calm - N/A   Overcast
7:15 PM 47.7 °F - 46.6 °F 96% 30.18 in 10.0 mi Calm Calm - N/A   Overcast
7:35 PM 47.7 °F - 46.4 °F 95% 30.18 in 10.0 mi Calm Calm - N/A   Overcast
7:55 PM 47.7 °F - 46.8 °F 97% 30.18 in 10.0 mi Calm Calm - N/A   Overcast
8:15 PM 47.7 °F - 46.8 °F 97% 30.19 in 10.0 mi Calm Calm - N/A   Overcast
8:35 PM 46.8 °F - 46.6 °F 99% 30.19 in 10.0 mi SSW 3.5 mph - N/A   Overcast
8:55 PM 45.1 °F 43.7 °F 45.1 °F 100% 30.19 in 10.0 mi WSW 3.5 mph - N/A   Overcast
9:15 PM 42.8 °F 40.1 °F 42.8 °F 100% 30.20 in 10.0 mi SW 4.6 mph - N/A   Mostly Cloudy
9:35 PM 43.2 °F 40.5 °F 43.2 °F 100% 30.20 in 10.0 mi SW 4.6 mph - N/A   Scattered Clouds
9:55 PM 41.0 °F - 41.0 °F 100% 30.21 in 7.0 mi Calm Calm - N/A   Clear
10:15 PM 39.9 °F 36.7 °F 39.9 °F 100% 30.22 in 1.0 mi SW 4.6 mph - N/A   Mist
10:35 PM 40.6 °F - 40.6 °F 100% 30.22 in 4.0 mi Calm Calm - N/A   Clear
10:55 PM 38.7 °F - 38.7 °F 100% 30.22 in 1.0 mi Calm Calm - N/A   Mist
11:15 PM 37.6 °F - 37.6 °F 100% 30.21 in 0.5 mi Calm Calm - N/A Fog Fog
11:35 PM 38.8 °F - 38.8 °F 100% 30.21 in 0.8 mi Calm Calm - N/A   Mist
11:55 PM 38.1 °F - 38.1 °F 100% 30.22 in 0.5 mi Calm Calm - N/A Fog Fog